Regional Weather Roundup
Issued by NWS

Home | Current Version | Previous Version | Graphics & Text | Print | Product List | Glossary On
Versions: 1 2 3 4 5 6 7 8 9 10 11 12 13 14 15 16 17 18 19 20 21 22 23 24 25 26 27 28 29 30 31 32 33 34 35 36 37 38 39 40 41 42 43 44 45 46 47 48 49 50
000
ASUS45 KTFX 232004
RWRMT
MONTANA HOURLY WEATHER ROUNDUP
NATIONAL WEATHER SERVICE GREAT FALLS MT
204 PM MDT TUE SEP 23 2014

NOTE: "FAIR" INDICATES FEW OR NO CLOUDS BELOW 12000 FEET WITH NO
SIGNIFICANT WEATHER AND/OR OBSTRUCTIONS TO VISIBILITY.

* THESE STATIONS ARE NOT UNDER NWS QUALITY CONTROL. THEY DO NOT
   REPORT WEATHER SUCH AS PRECIPITATION OR FOG.

MTZ001>007-043-232100-
WEST OF THE DIVIDE
CITY           SKY/WX    TMP DP  RH WIND       PRES   REMARKS
KALISPELL      PTCLDY    73  50  44 CALM      29.97F
MISSOULA       PTSUNNY   73  46  38 SE8       30.00F
BUTTE          PTCLDY    73  43  34 SW5       30.12F
MULLAN PASS    CLOUDY    61  48  62 VRB5      30.10F
* ESSEX        N/A       73  45  37 E6G11      N/A
* LINCOLN      N/A       75  45  34 W4G9       N/A
* POLSON       N/A       74  49  41 S2         N/A
* RONAN APT    PTCLDY    75  48  39 S8         N/A
* SEELEY LAKE  N/A       73  43  34 SE3G10     N/A
* THOMP F APT  CLOUDY    62  50  65 SE5G12     N/A
$$

MTZ008-052>055-232100-
SOUTHWEST MONTANA
CITY           SKY/WX    TMP DP  RH WIND       PRES   REMARKS
BOZEMAN        PTCLDY    75  48  39 N6        30.08F
DILLON         PTCLDY    75  46  36 SW7       30.10F
W YELLOWSTONE  PTCLDY    63  48  58 SW14G20   30.27S
* THREE FORKS  SUNNY     75  75 100 N/A        N/A
* BOULDER HILL N/A       70  44  39 SW15       N/A
* MONIDA PASS  N/A       60  50  70 SE18G23    N/A
* RAYNOLDS PAS N/A       64  44  48 SE12G20    N/A
* WHITEHALL    N/A       76  49  39 SW8G14     N/A
* WISE RIVER   N/A       68  46  45 NE4G10     N/A
$$

MTZ009>010-012-014-046-048-049-054-232100-
EAST SLOPES AND CENTRAL MONTANA
CITY           SKY/WX    TMP DP  RH WIND       PRES   REMARKS
CUT BANK       PTSUNNY   75  45  34 W8        29.98F
GREAT FALLS    PTCLDY    79  46  31 SW10      29.98F
HELENA         PTCLDY    79  46  31 E7        30.01F
MALMSTROM AFB  PTCLDY    79  45  30 W13G20    29.99F
* EAST GLACIER N/A       69  43  39 W12G22     N/A
* MONARCH      N/A       72  41  33 W8G14      N/A
* PENDROY      N/A       72  50  46 S4         N/A
* ROGERS PASS  N/A       72  40  31 SE7G19     N/A
* SAINT MARY   N/A       72  43  35 SW7G15     N/A
* SWEET GRASS  N/A       72  46  40 NW11G17    N/A
$$

MTZ011-013-016-021-035-040-045-047-050-051-232100-
NORTH CENTRAL MONTANA
CITY           SKY/WX    TMP DP  RH WIND       PRES   REMARKS
HAVRE          PTCLDY    82  46  28 NW12      29.90F
LEWISTOWN      SUNNY     79  45  30 W7        30.01F
* CHESTER      N/A       79  42  27 NW10G17    N/A
* DENTON       N/A       82  47  29 N4G14      N/A
* GEYSER       N/A       77  48  36 W13G18     N/A
* JUDITH GAP   N/A       77  46  33 VRB5       N/A
* LOMA         N/A       81  46  29 W7         N/A
$$

MTZ017>020-022>027-061-062-232100-
NORTHEAST MONTANA
CITY           SKY/WX    TMP DP  RH WIND       PRES   REMARKS
GLASGOW        SUNNY     81  48  32 W15       29.85F
GLENDIVE       SUNNY     82  52  35 W7        29.87S
JORDAN         SUNNY     82  48  31 NW13      29.89F
SIDNEY         SUNNY     82  57  43 SE7       29.85S HI  82
WOLF POINT     SUNNY     82  55  40 W8        29.84F HI  81
* BEAVER HILL  N/A       77  53  43 W8         N/A
* CIRCLE       N/A       79  55  44 SW3G12     N/A
* LINDSAY DVD  N/A       80  48  33 NW6G13     N/A
* NAVAJO       N/A       83  49  31 SW7        N/A
$$

MTZ028>042-056>058-232100-
SOUTHCENTRAL AND SOUTHEAST MONTANA
CITY           SKY/WX    TMP DP  RH WIND       PRES   REMARKS
BAKER          SUNNY     81  54  39 W12       29.90S
BILLINGS       SUNNY     84  43  24 NW8       29.98F
LIVINGSTON     PTCLDY    79  48  34 W17       30.06F
MILES CITY     SUNNY     84  50  31 NW10      29.89S
* LAUREL APT   SUNNY     82  45  27 W7         N/A
* ROUNDUP APT  SUNNY     82  45  27 N/A        N/A
* ALZADA       N/A       81  50  34 W9         N/A
* HYSHAM       N/A       79  46  31 W8         N/A
* LAME DEER    N/A       76  48  37 W12G20     N/A
* REED POINT   N/A       81  46  29 W12G17     N/A
* ROSCOE HILL  N/A       77  35  22 E3G9       N/A
$$

REGIONAL REPORTS...DAKOTAS
CITY           SKY/WX    TMP DP  RH WIND       PRES   REMARKS
WILLISTON      SUNNY     81  55  41 VRB5      29.83F HI  81
DICKINSON      SUNNY     79  57  47 S8        29.86F
BEACH          N/A       77  55  47 W6        29.89S
CROSBY         SUNNY     82  54  38 S9        29.83F
TIOGA          SUNNY     79  55  44 S6        29.88F
WATFORD CITY   SUNNY     81  54  39 SW6       29.83S
BISMARCK       CLOUDY    66  57  73 SE16      29.93S
GRAND FORKS    PTCLDY    73  57  57 S16G23    29.99F
FARGO          PTCLDY    75  50  42 S25G37    30.03S
BUFFALO SD     SUNNY     82  52  35 W9        29.84S
RAPID CITY     PTSUNNY   79  54  42 N5        29.93S
$$

REGIONAL REPORTS...WYOMING/IDAHO/WASHINGTON
CITY           SKY/WX    TMP DP  RH WIND       PRES   REMARKS
GILLETTE       PTCLDY    79  46  31 NW15G25   30.01S
SHERIDAN       PTCLDY    81  46  29 NW18G24   30.01F
CODY           PTCLDY    77  43  30 S7        30.09F
YELLOWSTONE LA PTCLDY    57  46  67 VRB5      30.35F
SALMON         PTCLDY    72  52  49 N7        30.04F
MULLAN PASS    CLOUDY    61  48  62 VRB5      30.10S
SAND POINT     CLOUDY    68  54  61 NE6       29.94F
SPOKANE        CLOUDY    72  55  55 NE6       29.91S

$$



USA.gov is the U.S. government's official web portal to all federal, state and local government web resources and services.